CAPE
645 976 992 835 950 1260 1356 1481 1494 1497 1537 2083 2088 2099 1938 1678 1225 1056 838 892 635 570 499 716 858 1473 1207 1556 1514 1277 1572 1355 1148
1346 965 973 853 1124 1307 1415 1491 1518 1650 1441 1899 2097 2015 2140 1942 1635 1262 1102 641 800 821 860 749 1276 1620 1553 1358 1665 1632 1599 1244 1180
1213 1134 883 939 923 973 1476 1633 1586 1630 1597 1889 2048 1944 2128 2013 1790 1702 1394 1167 568 632 801 1058 1196 1612 1551 1802 1663 1275 1620 1412 1304
1234 1171 1027 833 867 1213 1636 1509 1440 1403 1708 1669 1864 1862 1923 1922 1629 1452 1480 1293 1057 642 1112 1168 1213 1351 1371 1320 1301 1466 1151 1213 1417
1009 1536 1071 926 938 990 1235 1544 1331 1128 1162 990 1402 1621 1920 2028 2021 1782 1545 1407 1189 769 907 1401 1508 1401 1181 1565 1341 1405 1197 1244 1183
443 764 1544 1365 1239 1269 1367 1252 1697 1753 1707 1409 1358 1792 1931 1963 2000 1881 1647 1502 1406 1233 1260 1613 1629 1632 1572 1652 1787 1635 1792 1799 1527
608 942 1879 1818 1700 1784 1730 1675 1813 2047 1976 1728 1892 1855 1918 2002 2070 1965 1755 1574 1567 1558 1570 1709 1749 1763 1828 1773 1597 1664 1648 1532 1714
778 956 913 892 1735 2014 2154 2149 2133 2215 2241 2200 2189 2351 2356 2248 2313 2194 1870 1573 1604 1817 1795 1719 1859 1919 1949 1953 1843 1503 1467 1581 1405
777 787 758 850 1151 1749 2254 2252 2492 2521 2498 2559 2611 2598 2672 2680 2639 2513 2370 2257 2265 2234 2117 1906 1881 1946 1912 1842 1587 1130 952 1114 1783
537 638 692 881 918 1280 2139 2405 2326 2593 2686 2743 2890 2935 2877 2873 2891 2762 2696 2589 2499 2471 2320 2200 2198 2206 2111 1982 1984 1858 1452 1132 1435
292 380 589 788 902 948 1064 1808 2268 2621 2771 2920 2981 3061 3076 3061 3053 2903 2810 2755 2653 2564 2484 2433 2385 2348 2332 2426 2622 947 844 728 1408
50 73 298 493 507 653 845 1221 1913 2496 2820 3071 3141 2945 3194 3261 3148 3019 2877 2659 2627 2614 2639 2701 2746 2813 2927 3003 2445 295 126 230 1256
0 18 35 266 524 581 725 946 1079 1940 2701 2914 3090 3204 3199 3380 3335 3191 2911 2842 2710 2833 2882 2817 2819 3040 3089 2811 1471 19 0 0 15
0 0 0 10 161 490 680 766 1082 1364 2190 2589 2941 3064 3287 3412 3427 3416 3294 3282 3074 3042 3074 2783 3100 3049 2146 1525 960 0 0 0 0
0 0 0 0 2 333 575 602 1034 1121 1314 1917 2753 3104 3096 3325 3322 3252 3213 3423 3382 3253 3123 3019 2416 1822 870 169 0 0 0 0 0
0 0 0 0 0 2 373 649 1112 1269 1480 1603 1530 2004 3129 3213 3295 3145 2887 3100 3166 2935 2683 2071 1484 906 397 28 0 0 0 0 0
0 0 0 0 0 0 4 247 694 1042 1235 1453 1805 2015 2602 3189 3189 3220 3131 2981 2984 2128 1614 1319 784 417 140 0 0 0 0 0 0
0 0 0 0 0 0 0 5 152 638 887 1238 1463 1930 2528 2165 1539 1468 1068 967 1566 1289 1110 590 251 34 3 0 0 0 0 0 0
0 0 0 0 0 0 0 0 45 157 642 1069 1278 1479 2059 1879 1240 564 230 148 13 0 0 0 0 0 0 0 0 0 0 0 0
0 0 0 0 0 0 0 0 4 113 482 957 1048 1165 1094 1250 633 293 365 160 1 0 0 0 0 0 0 0 0 0 0 0 0
CIN
-117 -105 -99 -81 -51 -52 -68 -74 -73 -80 -132 -74 -31 -31 -25 -17 -3 -11 -5 -3 -2 -3 -3 -2 -1 -0 -3 -2 -8 -5 -0 -7 -1
-43 -116 -138 -102 -79 -68 -102 -95 -85 -95 -114 -64 -41 -36 -16 -23 -18 -7 -2 -7 -8 -2 -0 -0 -1 -3 -7 -6 -6 -9 -9 -15 -13
-37 -73 -158 -122 -99 -79 -80 -75 -91 -118 -95 -47 -45 -38 -22 -22 -19 -6 -1 -2 -38 -9 -1 -1 -2 -1 -1 -1 -3 -12 -5 -2 -5
-49 -70 -119 -135 -123 -98 -75 -53 -113 -119 -109 -73 -45 -50 -43 -25 -12 -8 -2 -1 -4 -23 -2 -6 -11 -5 -3 -2 -4 -8 -16 -6 -9
-68 -80 -103 -143 -121 -106 -96 -82 -116 -156 -142 -156 -82 -53 -30 -23 -12 -0 -1 -1 -0 -26 -12 -1 -0 -4 -3 -0 -6 -9 -13 -9 -0
-108 -111 -89 -111 -124 -114 -100 -96 -84 -97 -116 -96 -79 -56 -41 -19 -12 -10 -7 -1 -1 -0 -1 -0 -1 -2 -5 -1 -0 -1 -2 -6 -7
-127 -90 -63 -62 -91 -95 -99 -85 -89 -92 -98 -100 -95 -75 -51 -35 -25 -15 -12 -3 -3 -2 -2 -0 -0 -0 -1 -2 -7 -2 -2 -2 -3
-149 -130 -116 -112 -53 -76 -94 -97 -83 -76 -73 -82 -65 -52 -48 -48 -40 -29 -23 -12 -6 -1 -1 -0 -1 -0 -0 -0 -2 -3 -12 -19 -23
-155 -168 -171 -169 -128 -94 -79 -87 -93 -100 -88 -76 -71 -64 -50 -43 -46 -31 -18 -8 -3 -1 -0 -2 -8 -9 -10 -9 -5 -19 -56 -46 -0
-207 -188 -203 -188 -189 -159 -100 -79 -100 -99 -109 -98 -88 -61 -56 -44 -32 -28 -13 -6 -3 -1 -3 -4 -3 -2 -2 -6 -7 -15 -55 -84 -46
-257 -250 -227 -231 -224 -200 -182 -117 -78 -90 -97 -107 -95 -73 -56 -47 -32 -30 -27 -14 -22 -28 -26 -19 -12 -12 -13 -5 -2 -164 -155 -156 -63
-295 -292 -226 -223 -241 -239 -238 -199 -134 -108 -89 -78 -90 -83 -61 -54 -55 -36 -22 -20 -27 -26 -15 -12 -16 -9 -3 -0 -24 -310 -325 -250 -39
-0 -258 -289 -222 -201 -203 -180 -185 -192 -114 -79 -67 -73 -83 -77 -62 -55 -47 -54 -42 -42 -36 -29 -18 -1 -1 -3 -10 -146 -467 -0 -0 -214
-0 -0 -0 -239 -224 -162 -164 -197 -204 -163 -69 -43 -38 -34 -69 -71 -53 -34 -34 -37 -36 -25 -12 -4 -5 -1 -25 -72 -118 -0 -0 -0 -0
-0 -0 -0 -0 -73 -161 -141 -174 -165 -161 -124 -74 -41 -26 -40 -67 -78 -62 -48 -26 -16 -14 -7 -3 -32 -65 -131 -296 -0 -0 -0 -0 -0
-0 -0 -0 -0 -0 -24 -136 -121 -110 -114 -106 -115 -140 -93 -20 -24 -49 -75 -78 -77 -45 -29 -42 -74 -118 -181 -270 -420 -0 -0 -0 -0 -0
-0 -0 -0 -0 -0 -0 -36 -138 -105 -85 -91 -104 -92 -75 -25 -13 -26 -61 -64 -70 -74 -165 -203 -202 -239 -262 -308 -0 -0 -0 -0 -0 -0
-0 -0 -0 -0 -0 -0 -0 -102 -156 -110 -106 -89 -87 -49 -13 -59 -154 -150 -221 -212 -124 -194 -209 -286 -323 -358 -94 -0 -0 -0 -0 -0 -0
-0 -0 -0 -0 -0 -0 -0 -0 -223 -150 -116 -84 -75 -60 -18 -45 -107 -236 -326 -378 -502 -0 -0 -0 -0 -0 -0 -0 -0 -0 -0 -0 -0
-0 -0 -0 -0 -0 -0 -0 -0 -257 -159 -91 -58 -56 -44 -37 -44 -144 -203 -198 -268 -36 -0 -0 -0 -0 -0 -0 -0 -0 -0 -0 -0 -0
Wind_Speed
19 15 14 22 23 21 20 16 13 8 2 3 6 9 6 8 3 5 3 3 8 6 7 7 7 4 4 5 7 6 8 8 20
25 16 13 16 21 23 21 19 17 12 8 10 15 11 6 3 6 7 7 7 2 2 7 8 8 7 6 4 6 6 5 7 11
27 23 13 14 16 21 21 18 16 13 14 13 18 15 11 4 2 5 7 5 3 3 2 4 9 4 6 7 9 5 6 8 8
24 25 18 14 13 18 19 17 12 12 12 13 19 18 10 7 1 5 3 4 4 4 5 7 7 12 12 10 9 10 11 13 14
21 22 20 15 13 14 19 16 11 8 9 12 17 12 11 12 8 2 5 3 4 3 3 4 6 8 11 11 6 10 12 16 17
22 22 18 16 13 9 11 13 19 14 10 10 15 17 12 15 10 9 8 5 5 3 3 3 2 2 7 3 6 8 8 11 11
22 20 17 15 13 10 10 11 16 20 18 15 14 13 14 13 16 14 14 15 10 7 7 10 4 1 1 1 4 5 4 2 2
21 21 20 19 16 9 13 11 11 13 14 17 15 13 14 12 11 13 16 14 14 7 9 10 6 6 10 7 2 3 2 2 4
22 22 21 21 21 21 9 6 12 12 8 7 7 10 11 7 7 7 7 3 4 5 9 14 14 16 14 15 18 9 4 1 7
23 23 22 22 22 22 21 7 2 6 8 3 4 4 6 3 2 1 2 1 1 1 3 7 14 18 20 21 17 8 3 2 2
23 24 23 23 23 22 21 19 12 4 3 4 1 1 3 2 1 1 0 1 1 1 1 9 11 13 12 8 1 18 18 17 13
24 24 24 24 23 23 22 21 20 18 10 4 2 1 3 2 3 1 1 1 1 1 2 4 5 4 2 5 14 18 19 19 19
25 25 25 25 24 24 22 21 21 20 18 14 4 4 4 3 3 4 3 4 4 3 2 0 3 5 7 13 13 15 17 20 23
24 25 26 25 25 25 24 23 23 22 22 24 27 21 8 5 5 5 4 4 4 3 3 4 5 8 11 13 16 19 21 21 22
25 26 27 28 28 27 27 26 25 25 23 23 24 28 21 10 7 7 7 7 6 5 5 6 6 7 10 13 15 16 19 22 25
29 30 30 30 30 31 30 28 26 27 26 24 25 26 25 24 15 12 11 10 9 8 7 7 8 8 9 11 12 15 16 19 23
33 34 34 35 35 35 34 32 30 29 28 27 26 26 24 19 18 17 12 13 12 11 11 12 12 10 10 10 11 13 16 19 22
39 39 38 37 37 38 38 36 35 32 29 28 27 24 22 21 19 19 17 19 17 15 11 12 11 10 13 10 10 12 15 19 23
41 40 39 38 38 39 40 38 37 36 32 29 27 25 22 20 20 21 22 20 19 21 17 11 12 11 16 16 11 10 12 17 20
43 41 40 40 40 39 39 38 37 36 33 30 28 28 27 23 21 23 24 21 17 16 14 14 13 13 15 17 18 16 17 16 17
Wind_Direction
44 63 120 161 158 157 157 153 152 152 150 255 155 150 148 149 270 299 319 116 138 134 125 118 336 57 50 33 19 53 12 126 212
25 54 101 137 152 161 157 158 157 154 146 152 156 151 144 147 281 281 290 290 202 273 293 310 322 346 4 43 17 103 66 84 146
9 24 81 129 147 161 162 158 154 147 146 155 163 157 151 141 242 270 280 288 252 213 292 317 323 16 351 353 346 32 111 25 45
354 3 62 101 128 149 155 154 141 144 145 139 162 161 143 137 235 272 224 270 272 240 285 302 318 313 320 330 335 342 337 331 338
347 356 36 74 99 131 156 155 145 141 132 142 157 144 144 148 145 162 162 219 268 201 217 287 309 318 316 324 355 340 330 321 319
339 343 14 58 69 75 119 143 160 150 142 138 154 154 146 154 149 152 162 179 183 205 254 280 166 144 151 109 350 347 354 337 341
333 346 359 31 56 69 105 119 147 160 151 141 139 144 153 151 161 163 166 168 164 168 166 163 157 145 46 34 346 351 1 57 31
334 330 325 331 326 75 125 123 133 148 150 160 155 152 154 153 149 158 166 162 163 156 162 165 160 158 169 169 159 170 160 167 342
327 328 319 312 304 281 128 100 140 142 134 136 144 152 155 144 138 140 144 127 144 148 154 165 169 178 181 186 197 179 161 85 353
326 325 320 312 307 295 289 337 53 135 140 121 134 146 143 140 129 330 316 317 255 252 156 151 166 178 188 195 188 344 138 24 331
326 324 319 312 308 308 303 303 309 324 133 142 144 163 152 143 143 129 126 268 192 232 213 144 148 157 157 153 25 318 324 331 338
318 321 320 314 310 308 308 301 296 295 301 164 200 231 192 184 177 186 259 207 177 144 126 123 132 125 26 352 327 325 327 331 331
313 310 310 312 308 306 307 308 302 297 295 291 209 262 188 219 213 185 186 180 174 185 165 219 319 322 327 324 327 329 331 330 327
318 310 305 305 305 305 305 305 307 298 297 285 273 280 278 242 239 234 223 206 200 233 256 294 303 316 323 326 325 322 325 332 333
310 308 305 302 300 300 302 303 301 300 298 293 282 268 273 266 242 231 237 241 248 251 265 281 299 312 320 326 326 329 329 333 335
303 301 301 301 297 295 296 299 301 298 297 295 286 278 273 270 266 253 245 232 236 246 256 269 286 294 309 319 329 328 333 339 340
299 297 295 294 292 289 288 290 293 296 295 292 289 281 280 280 272 263 245 242 236 239 244 259 273 283 294 306 319 325 334 338 338
294 293 292 292 289 286 283 284 284 288 292 292 289 288 283 279 280 278 272 272 267 258 256 257 254 268 283 291 307 320 333 336 335
292 292 291 290 288 285 281 282 280 281 285 287 287 286 283 283 278 277 280 277 278 282 282 278 284 291 288 298 306 327 332 335 335
290 291 288 284 283 282 280 279 279 279 281 282 283 281 282 282 280 279 276 276 276 271 278 287 288 286 292 296 292 289 304 325 330